Athens, GA

7:38 PM EDT on May 26, 2017 (GMT -0400)
Athens / Epps

Weather History for KAHN - August, 2013

Change the Weather History Date:

Saturday, August 10, 2013

  Actual Average Record
Temperature  
Mean Temperature 82 °F 80 °F  
Max Temperature 92 °F 91 °F 104 °F (2007)
Min Temperature 72 °F 70 °F 60 °F (1953)
Cooling Degree Days 17 15  
Month to date cooling degree days 154 152  
Year to date cooling degree days 1103 1254  
Since 1 June cooling degree days 924 1014  
Growing Degree Days 32 (Base 50)    
Moisture  
Dew Point 73 °F    
Average Humidity 78    
Maximum Humidity 100    
Minimum Humidity 56    
Precipitation  
Precipitation T in 0.12 in 5.36 in (1859)
Month to date precipitation 1.13 1.25  
Year to date precipitation 41.61 29.01  
Sea Level Pressure  
Sea Level Pressure 30.10 in    
Wind  
Wind Speed 2 mph (SW)    
Max Wind Speed 10 mph    
Max Gust Speed 16 mph    
Visibility 8 miles    
Events Rain    
T = Trace of Precipitation, MM = Missing Value Source: NWS Daily Summary

Daily Weather History Graph

Daily Weather History Graph

Search for Another Location

Airport or City:

Trip Planner

Search our weather history database for the weather conditions in past years. The results will help you decide how hot, cold, wet, or windy it might be!

Date:

Astronomy

Aug. 10, 2013 Rise Set
Actual Time 6:51 AM EDT 8:25 PM EDT
Civil Twilight 6:24 AM EDT 8:51 PM EDT
Nautical Twilight 5:52 AM EDT 9:23 PM EDT
Astronomical Twilight 5:18 AM EDT 9:57 PM EDT
Moon 10:23 AM EDT (8/10) 10:21 PM EDT (8/10)
Length of Visible Light 14h 27m
Length of Day
13h 33m
Waxing Crescent, 14% of the Moon is Illuminated
Aug 10
Waxing Crescent
Aug 14
First Quarter
Aug 20
Full
Aug 28
Last Quarter
Sep 5
New

Hourly Weather History & Observations

Time (EDT) Temp. Heat Index Dew Point Humidity Pressure Visibility Wind Dir Wind Speed Gust Speed Precip Events Conditions
12:51 AM 78.1 °F - 73.9 °F 87% 30.09 in 8.0 mi Calm Calm - N/A   Clear
1:51 AM 77.0 °F - 73.9 °F 90% 30.09 in 8.0 mi Calm Calm - N/A   Clear
2:51 AM 75.9 °F - 73.9 °F 94% 30.08 in 7.0 mi Calm Calm - N/A   Clear
3:51 AM 75.0 °F - 73.0 °F 94% 30.08 in 6.0 mi Calm Calm - N/A   Clear
4:51 AM 75.0 °F - 73.0 °F 94% 30.08 in 6.0 mi Calm Calm - N/A   Partly Cloudy
5:51 AM 73.9 °F - 71.1 °F 91% 30.09 in 8.0 mi Calm Calm - N/A   Clear
6:51 AM 73.0 °F - 72.0 °F 96% 30.10 in 5.0 mi South 3.5 mph - N/A   Clear
7:51 AM 75.0 °F - 72.0 °F 90% 30.11 in 7.0 mi Variable 3.5 mph - N/A   Partly Cloudy
8:51 AM 77.0 °F - 72.0 °F 84% 30.12 in 8.0 mi Calm Calm - N/A   Clear
9:51 AM 81.0 °F 85.8 °F 73.0 °F 77% 30.13 in 9.0 mi Calm Calm - N/A   Clear
10:51 AM 84.9 °F 92.1 °F 73.9 °F 69% 30.13 in 9.0 mi SSW 3.5 mph - N/A   Clear
11:51 AM 87.1 °F 95.4 °F 73.9 °F 65% 30.13 in 8.0 mi Calm Calm - N/A   Mostly Cloudy
12:51 PM 89.1 °F 97.0 °F 73.0 °F 59% 30.12 in 9.0 mi SW 4.6 mph - N/A   Clear
1:51 PM 82.9 °F 89.4 °F 73.9 °F 74% 30.12 in 8.0 mi Variable 3.5 mph - 0.00 in   Mostly Cloudy
2:51 PM 90.0 °F 96.9 °F 72.0 °F 55% 30.09 in 6.0 mi Variable 3.5 mph - N/A   Haze
3:51 PM 86.0 °F 93.0 °F 73.0 °F 65% 30.08 in 9.0 mi Variable 5.8 mph - N/A   Partly Cloudy
4:51 PM 80.1 °F 83.6 °F 71.1 °F 74% 30.07 in 10.0 mi West 4.6 mph - N/A   Partly Cloudy
5:51 PM 79.0 °F - 72.0 °F 79% 30.10 in 10.0 mi Variable 6.9 mph - N/A   Overcast
6:51 PM 75.9 °F - 72.0 °F 87% 30.08 in 5.0 mi Calm Calm - 0.00 in Rain Light Rain
7:51 PM 77.0 °F - 73.0 °F 88% 30.09 in 9.0 mi Calm Calm - 0.00 in   Partly Cloudy
8:51 PM 75.9 °F - 72.0 °F 87% 30.12 in 10.0 mi North 3.5 mph - N/A   Scattered Clouds
9:51 PM 73.9 °F - 73.0 °F 97% 30.12 in 9.0 mi Calm Calm - N/A   Clear
10:51 PM 73.0 °F - 72.0 °F 96% 30.12 in 7.0 mi Calm Calm - N/A   Clear
11:51 PM 73.0 °F - 71.1 °F 93% 30.12 in 7.0 mi Calm Calm - N/A   Clear